Date String (YYYY-MM-DD hh:mm:ss) UTC,Instrument flags,Ambient pressure (hPa),Sample flow (lpm),Bypass flow (lpm),Sample temperature (°C),Ambient temperature (°C),ASC tube jacket temperature (°C),LED temperature (°C),Box temperature (°C),Sample RH (%),Span deviation,Mass concentration (μg/m³),Mass concentration (μg/m³),Mass concentration (μg/m³)
DateTimeUTC,F1_M11,P_M11,Q1_M11,Q2_M11,T1_M11,T2_M11,T3_M11,T4_M11,T5_M11,U1_M11,ZSPAN_M11,X2_M11,X0_M11,X1_M11
2022-01-08 07:00:00,,0812.5,5.01,0.00,23.5,22.8,00.0,32.8,25.2,11.0,0000.0,0000.38,0000.59,0000.30
2022-01-08 07:01:00,,0812.5,5.01,0.00,23.5,22.8,00.0,32.7,25.2,11.2,0000.0,0000.39,0000.67,0000.31
2022-01-08 07:02:00,,0812.7,5.00,0.00,23.5,22.8,00.0,32.7,25.2,11.3,0000.0,0000.41,0000.71,0000.32
2022-01-08 07:03:00,,0812.7,5.00,0.00,23.5,22.8,00.0,32.7,25.2,11.4,0000.0,0000.42,0000.75,0000.32
2022-01-08 07:04:00,,0812.7,5.01,0.00,23.5,22.8,00.0,32.7,25.2,11.5,0000.0,0000.42,0000.75,0000.31
2022-01-08 07:05:00,,0812.7,4.99,0.00,23.5,22.8,00.0,32.7,25.2,11.6,0000.0,0000.44,0000.81,0000.31
2022-01-08 07:06:00,,0812.8,5.01,0.00,23.5,22.8,00.0,32.7,25.1,11.5,0000.0,0000.43,0000.78,0000.31
2022-01-08 07:07:00,,0812.6,5.01,0.00,23.5,22.7,00.0,32.7,25.1,11.6,0000.0,0000.42,0000.74,0000.32
2022-01-08 07:08:00,,0812.6,5.00,0.00,23.5,22.7,00.0,32.7,25.1,11.6,0000.0,0000.41,0000.73,0000.31
2022-01-08 07:09:00,,0812.7,4.99,0.00,23.4,22.7,00.0,32.6,25.1,11.6,0000.0,0000.41,0000.71,0000.31
2022-01-08 07:10:00,,0812.6,5.01,0.00,23.4,22.7,00.0,32.6,25.1,11.6,0000.0,0000.39,0000.64,0000.32
2022-01-08 07:11:00,,0812.6,5.00,0.00,23.4,22.6,00.0,32.6,25.1,11.6,0000.0,0000.40,0000.64,0000.32
2022-01-08 07:12:00,,0812.5,5.00,0.00,23.4,22.5,00.0,32.6,25.0,11.6,0000.0,0000.39,0000.56,0000.32
2022-01-08 07:13:00,,0812.6,5.00,0.00,23.3,22.5,00.0,32.6,25.0,11.6,0000.0,0000.38,0000.53,0000.32
2022-01-08 07:14:00,,0812.8,5.00,0.00,23.3,22.5,00.0,32.6,25.0,11.8,0000.0,0000.37,0000.50,0000.33
2022-01-08 07:15:00,,0812.7,4.98,0.00,23.3,22.5,00.0,32.6,25.0,11.9,0000.0,0000.38,0000.53,0000.34
2022-01-08 07:16:00,,0812.7,5.00,0.00,23.3,22.6,00.0,32.5,25.0,11.9,0000.0,0000.38,0000.49,0000.34
2022-01-08 07:17:00,,0812.7,5.01,0.00,23.3,22.6,00.0,32.5,25.0,11.9,0000.0,0000.37,0000.47,0000.34
2022-01-08 07:18:00,,0812.6,5.01,0.00,23.3,22.6,00.0,32.5,25.0,12.0,0000.0,0000.37,0000.46,0000.34
2022-01-08 07:19:00,,0812.6,5.01,0.00,23.3,22.6,00.0,32.5,25.0,11.7,0000.0,0000.36,0000.46,0000.34
2022-01-08 07:20:00,,0812.6,5.01,0.00,23.3,22.6,00.0,32.5,25.1,11.7,0000.0,0000.36,0000.45,0000.34
2022-01-08 07:21:00,,0812.5,4.99,0.00,23.3,22.6,00.0,32.5,25.0,11.7,0000.0,0000.37,0000.48,0000.34
2022-01-08 07:22:00,,0812.5,5.01,0.00,23.3,22.6,00.0,32.5,25.0,11.9,0000.0,0000.37,0000.48,0000.34
2022-01-08 07:23:00,,0812.6,4.99,0.00,23.3,22.6,00.0,32.5,25.0,12.0,0000.0,0000.37,0000.48,0000.33
2022-01-08 07:24:00,,0812.6,5.01,0.00,23.3,22.7,00.0,32.5,25.1,11.9,0000.0,0000.36,0000.46,0000.33
2022-01-08 07:25:00,,0812.6,5.00,0.00,23.4,22.7,00.0,32.5,25.1,11.8,0000.0,0000.36,0000.46,0000.33
2022-01-08 07:26:00,,0812.7,5.00,0.00,23.4,22.7,00.0,32.5,25.1,11.8,0000.0,0000.35,0000.44,0000.33
2022-01-08 07:27:00,,0812.7,5.00,0.00,23.4,22.8,00.0,32.5,25.1,11.7,0000.0,0000.35,0000.44,0000.32
2022-01-08 07:28:00,,0812.7,4.99,0.00,23.4,22.8,00.0,32.5,25.2,11.7,0000.0,0000.36,0000.45,0000.33
2022-01-08 07:29:00,,0812.7,5.00,0.00,23.4,22.8,00.0,32.5,25.1,11.8,0000.0,0000.37,0000.48,0000.34
2022-01-08 07:30:00,,0812.7,4.99,0.00,23.4,22.8,00.0,32.5,25.1,11.8,0000.0,0000.39,0000.51,0000.34
2022-01-08 07:31:00,,0812.7,5.00,0.00,23.4,22.8,00.0,32.5,25.1,11.8,0000.0,0000.40,0000.53,0000.35
2022-01-08 07:32:00,,0812.6,4.99,0.00,23.4,22.7,00.0,32.5,25.1,11.7,0000.0,0000.43,0000.58,0000.36
2022-01-08 07:33:00,,0812.7,5.00,0.00,23.3,22.6,00.0,32.5,25.0,11.6,0000.0,0000.44,0000.64,0000.37
2022-01-08 07:34:00,,0812.6,5.00,0.00,23.3,22.5,00.0,32.4,25.0,11.7,0000.0,0000.45,0000.73,0000.37
2022-01-08 07:35:00,,0812.6,4.99,0.00,23.3,22.5,00.0,32.4,24.9,11.7,0000.0,0000.49,0000.82,0000.38
2022-01-08 07:36:00,,0812.7,5.00,0.00,23.2,22.5,00.0,32.4,24.9,11.8,0000.0,0000.52,0000.89,0000.39
2022-01-08 07:37:00,,0812.7,5.01,0.00,23.2,22.5,00.0,32.4,24.9,11.8,0000.0,0000.53,0000.94,0000.39
2022-01-08 07:38:00,,0812.7,5.01,0.00,23.2,22.4,00.0,32.4,24.9,11.8,0000.0,0000.53,0000.94,0000.39
2022-01-08 07:39:00,,0812.7,4.98,0.00,23.2,22.4,00.0,32.4,24.9,11.8,0000.0,0000.55,0000.96,0000.39
2022-01-08 07:40:00,,0812.7,5.00,0.00,23.2,22.4,00.0,32.4,24.9,11.9,0000.0,0000.54,0000.94,0000.39
2022-01-08 07:41:00,,0812.7,5.01,0.00,23.1,22.4,00.0,32.4,24.9,11.9,0000.0,0000.54,0000.94,0000.40
2022-01-08 07:42:00,,0812.6,5.00,0.00,23.1,22.4,00.0,32.3,24.8,11.9,0000.0,0000.55,0000.98,0000.41
2022-01-08 07:43:00,,0812.6,4.99,0.00,23.1,22.4,00.0,32.3,24.8,12.0,0000.0,0000.55,0001.05,0000.41
2022-01-08 07:44:00,,0812.6,5.01,0.00,23.1,22.4,00.0,32.3,24.8,12.0,0000.0,0000.55,0000.99,0000.41
2022-01-08 07:45:00,,0812.6,5.02,0.00,23.1,22.3,00.0,32.3,24.8,11.9,0000.0,0000.54,0000.91,0000.41
2022-01-08 07:46:00,,0812.6,5.00,0.00,23.1,22.3,00.0,32.3,24.7,11.9,0000.0,0000.53,0000.86,0000.41
2022-01-08 07:47:00,,0812.6,4.99,0.00,23.0,22.3,00.0,32.3,24.7,12.0,0000.0,0000.50,0000.80,0000.41
2022-01-08 07:48:00,,0812.6,5.00,0.00,23.0,22.3,00.0,32.2,24.7,12.0,0000.0,0000.49,0000.75,0000.40
2022-01-08 07:49:00,,0812.5,5.00,0.00,23.0,22.2,00.0,32.2,24.7,11.9,0000.0,0000.48,0000.72,0000.41
2022-01-08 07:50:00,,0812.5,5.00,0.00,23.0,22.2,00.0,32.2,24.6,11.9,0000.0,0000.47,0000.71,0000.41
2022-01-08 07:51:00,,0812.6,5.00,0.00,23.0,22.2,00.0,32.2,24.7,11.9,0000.0,0000.48,0000.72,0000.40
2022-01-08 07:52:00,,0812.5,5.02,0.00,23.0,22.2,00.0,32.2,24.6,11.9,0000.0,0000.47,0000.71,0000.40
2022-01-08 07:53:00,,0812.5,4.99,0.00,22.9,22.2,00.0,32.2,24.6,12.0,0000.0,0000.45,0000.64,0000.39
2022-01-08 07:54:00,,0812.5,5.01,0.00,22.9,22.1,00.0,32.1,24.6,11.9,0000.0,0000.42,0000.52,0000.38
2022-01-08 07:55:00,,0812.5,4.99,0.00,22.9,22.1,00.0,32.1,24.6,12.0,0000.0,0000.42,0000.54,0000.38
2022-01-08 07:56:00,,0812.5,5.00,0.00,22.9,22.1,00.0,32.1,24.6,12.1,0000.0,0000.43,0000.56,0000.38
2022-01-08 07:57:00,,0812.5,5.01,0.00,22.8,22.1,00.0,32.1,24.5,12.0,0000.0,0000.43,0000.57,0000.38
2022-01-08 07:58:00,,0812.5,4.99,0.00,22.8,22.0,00.0,32.1,24.5,12.1,0000.0,0000.44,0001.02,0000.38
2022-01-08 07:59:00,,0812.4,5.01,0.00,22.8,21.9,00.0,32.0,24.4,12.0,0000.0,0000.47,0001.38,0000.38
